| time (UTC) | temp C | wind direction | speed KPH | gust KPH | rain 1hr cm | rain 24hr cm | rain mn cm | humidity % | barometer mb |
| 20260508111542 | 2 | 90 | 0.0 | 0.0 | 0.00 | 0.00 | 0.00 | 99 | 1016.2 |
| 20260508110922 | 1 | 90 | 0.0 | 0.0 | 0.00 | 0.00 | 0.00 | 99 | 1016.2 |
| 20260508110326 | 1 | 90 | 0.0 | 0.0 | 0.00 | 0.00 | 0.00 | 99 | 1016.2 |
| 20260508105142 | 1 | 90 | 0.0 | 0.0 | 0.00 | 0.00 | 0.00 | 99 | 1016.2 |
| 20260508103936 | 1 | 90 | 0.0 | 0.0 | 0.00 | 0.00 | 0.00 | 99 | 1016.2 |
| 20260508103338 | 1 | 90 | 0.0 | 0.0 | 0.00 | 0.00 | 0.00 | 99 | 1016.2 |
| 20260508102715 | 1 | 90 | 0.0 | 0.0 | 0.00 | 0.00 | 0.00 | 99 | 1015.9 |
| 20260508102115 | 1 | 89 | 0.0 | 0.0 | 0.00 | 0.00 | 0.00 | 99 | 1015.9 |
| 20260508101512 | 1 | 89 | 0.0 | 0.0 | 0.00 | 0.00 | 0.00 | 99 | 1015.9 |
| 20260508100938 | 1 | 89 | 0.0 | 0.0 | 0.00 | 0.00 | 0.00 | 99 | 1015.9 |
| 20260508100331 | 1 | 89 | 0.0 | 0.0 | 0.00 | 0.00 | 0.00 | 99 | 1015.9 |
| 20260508095748 | 1 | 89 | 0.0 | 0.0 | 0.00 | 0.00 | 0.00 | 99 | 1015.9 |
| 20260508095130 | 1 | 88 | 0.0 | 0.0 | 0.00 | 0.00 | 0.00 | 99 | 1015.9 |
| 20260508094522 | 1 | 88 | 0.0 | 0.0 | 0.00 | 0.00 | 0.00 | 99 | 1015.9 |
| 20260508093943 | 1 | 88 | 0.0 | 0.0 | 0.00 | 0.00 | 0.00 | 99 | 1015.9 |
| 20260508092722 | 1 | 88 | 0.0 | 0.0 | 0.00 | 0.00 | 0.00 | 99 | 1015.5 |
| 20260508092142 | 1 | 88 | 0.0 | 0.0 | 0.00 | 0.00 | 0.00 | 99 | 1015.5 |
| 20260508091528 | 1 | 89 | 0.0 | 0.0 | 0.00 | 0.00 | 0.00 | 99 | 1015.5 |
| 20260508090932 | 1 | 89 | 0.0 | 0.0 | 0.00 | 0.00 | 0.00 | 99 | 1015.5 |
| 20260508085139 | 2 | 89 | 0.0 | 0.0 | 0.00 | 0.00 | 0.00 | 99 | 1015.5 |
| 20260508084547 | 2 | 87 | 0.0 | 0.0 | 0.00 | 0.00 | 0.00 | 99 | 1015.5 |
| 20260508083912 | 1 | 87 | 0.0 | 0.0 | 0.00 | 0.00 | 0.00 | 99 | 1015.5 |
| 20260508083313 | 2 | 87 | 0.0 | 0.0 | 0.00 | 0.00 | 0.00 | 99 | 1015.5 |
| 20260508082735 | 2 | 87 | 0.0 | 0.0 | 0.00 | 0.00 | 0.00 | 99 | 1015.5 |
| 20260508082150 | 2 | 87 | 0.0 | 0.0 | 0.00 | 0.00 | 0.00 | 99 | 1015.5 |
| 20260508081537 | 2 | 87 | 0.0 | 0.0 | 0.00 | 0.00 | 0.00 | 99 | 1015.5 |
| 20260508080328 | 2 | 88 | 0.0 | 0.0 | 0.00 | 0.00 | 0.00 | 98 | 1015.5 |
| 20260508075731 | 2 | 89 | 0.0 | 0.0 | 0.00 | 0.00 | 0.00 | 99 | 1015.5 |
| 20260508075120 | 2 | 88 | 0.0 | 0.0 | 0.00 | 0.00 | 0.00 | 99 | 1015.5 |
| 20260508074529 | 1 | 88 | 0.0 | 0.0 | 0.00 | 0.00 | 0.00 | 99 | 1015.5 |
| 20260508073327 | 1 | 88 | 0.0 | 0.0 | 0.00 | 0.00 | 0.00 | 98 | 1015.5 |
| 20260508072732 | 2 | 88 | 0.0 | 0.0 | 0.00 | 0.00 | 0.00 | 98 | 1015.2 |
| 20260508072115 | 2 | 87 | 0.0 | 0.0 | 0.00 | 0.00 | 0.00 | 98 | 1015.5 |
| 20260508071537 | 2 | 87 | 0.0 | 0.0 | 0.00 | 0.00 | 0.00 | 97 | 1015.5 |
| 20260508070950 | 2 | 88 | 0.0 | 0.0 | 0.00 | 0.00 | 0.00 | 98 | 1015.5 |
| 20260508070338 | 2 | 88 | 0.0 | 0.0 | 0.00 | 0.00 | 0.00 | 97 | 1015.2 |
| 20260508065738 | 2 | 88 | 0.0 | 0.0 | 0.00 | 0.00 | 0.00 | 97 | 1015.5 |
| 20260508065133 | 2 | 88 | 0.0 | 0.0 | 0.00 | 0.00 | 0.00 | 96 | 1015.5 |
| 20260508064520 | 2 | 88 | 0.0 | 0.0 | 0.00 | 0.00 | 0.00 | 96 | 1015.5 |
| 20260508063925 | 2 | 88 | 0.0 | 0.0 | 0.00 | 0.00 | 0.00 | 96 | 1015.9 |
| 20260508063318 | 2 | 88 | 0.0 | 0.0 | 0.00 | 0.00 | 0.00 | 95 | 1015.5 |
| 20260508062742 | 2 | 87 | 0.0 | 0.0 | 0.00 | 0.00 | 0.00 | 95 | 1015.5 |
| 20260508062146 | 2 | 87 | 0.0 | 0.0 | 0.00 | 0.00 | 0.00 | 94 | 1015.5 |
| 20260508061530 | 2 | 87 | 0.0 | 0.0 | 0.00 | 0.00 | 0.00 | 94 | 1015.5 |
| 20260508060909 | 2 | 87 | 0.0 | 0.0 | 0.00 | 0.00 | 0.00 | 95 | 1015.5 |
| 20260508060341 | 2 | 87 | 0.0 | 0.0 | 0.00 | 0.00 | 0.00 | 95 | 1015.5 |
| 20260508055751 | 2 | 87 | 0.0 | 0.0 | 0.00 | 0.00 | 0.00 | 95 | 1015.5 |
| 20260508055141 | 2 | 87 | 0.0 | 0.0 | 0.00 | 0.00 | 0.00 | 94 | 1015.9 |
| 20260508054544 | 2 | 87 | 0.0 | 0.0 | 0.00 | 0.00 | 0.00 | 93 | 1015.5 |
| 20260508052737 | 3 | 86 | 0.0 | 0.0 | 0.00 | 0.00 | 0.00 | 91 | 1015.9 |
| 20260508052132 | 3 | 90 | 0.0 | 0.0 | 0.00 | 0.00 | 0.00 | 92 | 1015.9 |
| 20260508051526 | 3 | 90 | 0.0 | 0.0 | 0.00 | 0.00 | 0.00 | 90 | 1015.9 |
| 20260508050945 | 3 | 87 | 0.0 | 0.0 | 0.00 | 0.00 | 0.00 | 89 | 1015.5 |
| 20260508050309 | 3 | 86 | 0.0 | 0.0 | 0.00 | 0.00 | 0.00 | 92 | 1015.9 |
| 20260508045724 | 2 | 87 | 0.0 | 0.0 | 0.00 | 0.00 | 0.00 | 92 | 1015.9 |
| 20260508045127 | 3 | 87 | 0.0 | 0.0 | 0.00 | 0.00 | 0.00 | 90 | 1015.9 |
| 20260508044542 | 3 | 87 | 0.0 | 0.0 | 0.00 | 0.00 | 0.00 | 90 | 1015.9 |
| 20260508043936 | 2 | 87 | 0.0 | 0.0 | 0.00 | 0.00 | 0.00 | 93 | 1015.9 |
| 20260508043347 | 3 | 86 | 0.0 | 0.0 | 0.00 | 0.00 | 0.00 | 91 | 1015.9 |
| 20260508042723 | 3 | 86 | 0.0 | 0.0 | 0.00 | 0.00 | 0.00 | 91 | 1015.9 |
| 20260508042141 | 3 | 86 | 0.0 | 0.0 | 0.00 | 0.00 | 0.00 | 90 | 1015.9 |
| 20260508041532 | 3 | 86 | 0.0 | 0.0 | 0.00 | 0.00 | 0.00 | 88 | 1015.9 |
| 20260508040318 | 3 | 87 | 0.0 | 0.0 | 0.00 | 0.00 | 0.00 | 86 | 1015.9 |
| 20260508035120 | 4 | 85 | 0.0 | 0.0 | 0.00 | 0.00 | 0.00 | 86 | 1015.9 |
| 20260508034526 | 4 | 88 | 0.0 | 0.0 | 0.00 | 0.00 | 0.00 | 85 | 1015.9 |
| 20260508033916 | 4 | 89 | 0.0 | 0.0 | 0.00 | 0.00 | 0.00 | 86 | 1015.9 |
| 20260508033321 | 4 | 90 | 0.0 | 0.0 | 0.00 | 0.00 | 0.00 | 84 | 1015.5 |
| 20260508032734 | 3 | 90 | 0.0 | 0.0 | 0.00 | 0.00 | 0.00 | 86 | 1015.5 |
| 20260508032146 | 4 | 90 | 0.0 | 0.0 | 0.00 | 0.00 | 0.00 | 85 | 1015.5 |
| 20260508031526 | 4 | 91 | 0.0 | 0.0 | 0.00 | 0.00 | 0.00 | 84 | 1015.5 |
| 20260508030931 | 5 | 91 | 0.0 | 0.0 | 0.00 | 0.00 | 0.00 | 85 | 1015.5 |
| 20260508030311 | 5 | 83 | 0.0 | 0.0 | 0.00 | 0.00 | 0.00 | 82 | 1015.5 |
| 20260508025719 | 5 | 83 | 0.0 | 0.0 | 0.00 | 0.00 | 0.00 | 85 | 1015.9 |
| 20260508025114 | 5 | 83 | 0.0 | 0.0 | 0.00 | 0.00 | 0.00 | 83 | 1015.5 |
| 20260508024525 | 5 | 83 | 0.0 | 0.0 | 0.00 | 0.00 | 0.00 | 82 | 1015.9 |
| 20260508023946 | 5 | 83 | 0.0 | 0.0 | 0.00 | 0.00 | 0.00 | 84 | 1015.5 |
| 20260508023341 | 5 | 83 | 0.0 | 0.0 | 0.00 | 0.00 | 0.00 | 83 | 1015.5 |
| 20260508022723 | 5 | 83 | 0.0 | 0.0 | 0.00 | 0.00 | 0.00 | 80 | 1015.5 |
| 20260508021515 | 5 | 83 | 0.0 | 0.0 | 0.00 | 0.00 | 0.00 | 77 | 1015.5 |
| 20260508020945 | 5 | 83 | 0.0 | 0.0 | 0.00 | 0.00 | 0.00 | 79 | 1015.5 |
| 20260508020349 | 5 | 82 | 0.0 | 0.0 | 0.00 | 0.00 | 0.00 | 75 | 1015.5 |
| 20260508015738 | 6 | 83 | 0.0 | 0.0 | 0.00 | 0.00 | 0.00 | 76 | 1015.5 |
| 20260508015145 | 6 | 82 | 0.0 | 0.0 | 0.00 | 0.00 | 0.00 | 76 | 1015.5 |
| 20260508014517 | 6 | 116 | 0.0 | 0.0 | 0.00 | 0.00 | 0.00 | 77 | 1015.2 |
| 20260508012725 | 6 | 83 | 0.0 | 0.0 | 0.00 | 0.00 | 0.00 | 74 | 1015.2 |
| 20260508011528 | 7 | 83 | 0.0 | 0.0 | 0.00 | 0.00 | 0.00 | 71 | 1014.9 |
| 20260508010935 | 7 | 84 | 0.0 | 0.0 | 0.00 | 0.00 | 0.00 | 71 | 1014.9 |
| 20260508010349 | 7 | 83 | 0.0 | 0.0 | 0.00 | 0.00 | 0.00 | 67 | 1014.9 |
| 20260508005736 | 8 | 84 | 0.0 | 0.0 | 0.00 | 0.00 | 0.00 | 64 | 1014.9 |
| 20260508003908 | 10 | 83 | 0.0 | 0.0 | 0.00 | 0.00 | 0.00 | 59 | 1014.5 |
| 20260508003340 | 10 | 76 | 0.0 | 0.0 | 0.00 | 0.00 | 0.00 | 58 | 1014.5 |
| 20260508002734 | 10 | 90 | 0.0 | 0.0 | 0.00 | 0.00 | 0.00 | 56 | 1014.2 |
| 20260508002110 | 11 | 86 | 0.0 | 0.0 | 0.00 | 0.00 | 0.00 | 52 | 1014.5 |
| 20260508001532 | 11 | 91 | 0.0 | 0.0 | 0.00 | 0.00 | 0.00 | 49 | 1014.5 |
| 20260508000949 | 12 | 87 | 0.0 | 0.0 | 0.00 | 0.00 | 0.00 | 49 | 1014.5 |
| 20260508000335 | 12 | 91 | 0.0 | 0.0 | 0.00 | 0.00 | 0.00 | 49 | 1014.2 |
| 20260507235747 | 12 | 69 | 0.0 | 0.0 | 0.00 | 0.00 | 0.00 | 45 | 1014.2 |
| 20260507235119 | 13 | 97 | 0.0 | 0.0 | 0.00 | 0.00 | 0.00 | 43 | 1014.2 |
| 20260507234551 | 13 | 4 | 4.8 | 6.4 | 0.00 | 0.00 | 0.00 | 43 | 1013.8 |
| 20260507233938 | 13 | 58 | 1.6 | 1.6 | 0.00 | 0.00 | 0.00 | 42 | 1013.8 |
| 20260507233347 | 13 | 80 | 3.2 | 4.8 | 0.00 | 0.00 | 0.00 | 41 | 1013.8 |
| 20260507231535 | 14 | 68 | 3.2 | 4.8 | 0.00 | 0.00 | 0.00 | 37 | 1013.8 |
| 20260507225744 | 15 | 54 | 0.0 | 1.6 | 0.00 | 0.00 | 0.00 | 39 | 1013.8 |
| 20260507225120 | 15 | 102 | 1.6 | 1.6 | 0.00 | 0.00 | 0.00 | 37 | 1013.8 |
| 20260507224527 | 15 | 69 | 0.0 | 1.6 | 0.00 | 0.00 | 0.00 | 37 | 1013.8 |
| 20260507223918 | 15 | 292 | 3.2 | 3.2 | 0.00 | 0.00 | 0.00 | 36 | 1013.8 |
| 20260507223338 | 16 | 241 | 4.8 | 4.8 | 0.00 | 0.00 | 0.00 | 34 | 1013.8 |
| 20260507222719 | 16 | 76 | 1.6 | 3.2 | 0.00 | 0.00 | 0.00 | 34 | 1013.8 |
| 20260507221516 | 16 | 237 | 1.6 | 3.2 | 0.00 | 0.00 | 0.00 | 31 | 1013.5 |
| 20260507220312 | 16 | 206 | 4.8 | 4.8 | 0.00 | 0.00 | 0.00 | 32 | 1013.5 |
| 20260507215738 | 16 | 286 | 4.8 | 4.8 | 0.00 | 0.00 | 0.00 | 32 | 1013.2 |
| 20260507215144 | 17 | 203 | 1.6 | 4.8 | 0.00 | 0.00 | 0.00 | 33 | 1013.2 |
| 20260507213944 | 16 | 5 | 6.4 | 16.1 | 0.00 | 0.00 | 0.00 | 34 | 1013.2 |
| 20260507212737 | 16 | 49 | 8.0 | 11.3 | 0.00 | 0.00 | 0.00 | 33 | 1013.2 |
| 20260507211532 | 17 | 175 | 6.4 | 9.7 | 0.00 | 0.00 | 0.00 | 33 | 1012.8 |
| 20260507210928 | 17 | 152 | 4.8 | 4.8 | 0.00 | 0.00 | 0.00 | 33 | 1012.8 |
| 20260507210344 | 17 | 13 | 1.6 | 1.6 | 0.00 | 0.00 | 0.00 | 33 | 1012.8 |
| 20260507204547 | 17 | 266 | 4.8 | 4.8 | 0.00 | 0.00 | 0.00 | 35 | 1012.8 |
| 20260507202737 | 17 | 1 | 3.2 | 3.2 | 0.00 | 0.00 | 0.00 | 35 | 1012.5 |
| 20260507202152 | 17 | 47 | 1.6 | 1.6 | 0.00 | 0.00 | 0.00 | 34 | 1012.5 |
| 20260507201538 | 17 | 281 | 6.4 | 6.4 | 0.00 | 0.00 | 0.00 | 35 | 1012.8 |
| 20260507200938 | 18 | 193 | 6.4 | 11.3 | 0.00 | 0.00 | 0.00 | 32 | 1012.8 |
| 20260507195752 | 17 | 195 | 4.8 | 4.8 | 0.00 | 0.00 | 0.00 | 39 | 1012.8 |
| 20260507195151 | 17 | 94 | 1.6 | 3.2 | 0.00 | 0.00 | 0.00 | 34 | 1012.8 |
| 20260507194514 | 17 | 51 | 3.2 | 6.4 | 0.00 | 0.00 | 0.00 | 33 | 1012.8 |
| 20260507193951 | 17 | 56 | 1.6 | 3.2 | 0.00 | 0.00 | 0.00 | 38 | 1013.2 |
| 20260507192732 | 17 | 242 | 8.0 | 12.9 | 0.00 | 0.00 | 0.00 | 34 | 1013.2 |
| 20260507192146 | 17 | 228 | 8.0 | 9.7 | 0.00 | 0.00 | 0.00 | 35 | 1013.2 |
| 20260507191535 | 17 | 53 | 3.2 | 3.2 | 0.00 | 0.00 | 0.00 | 37 | 1013.2 |
| 20260507190936 | 17 | 222 | 9.7 | 12.9 | 0.00 | 0.00 | 0.00 | 39 | 1013.5 |
| 20260507185724 | 17 | 113 | 1.6 | 1.6 | 0.00 | 0.00 | 0.00 | 39 | 1013.5 |
| 20260507185150 | 17 | 95 | 3.2 | 4.8 | 0.00 | 0.00 | 0.00 | 36 | 1013.5 |
| 20260507184548 | 16 | 323 | 1.6 | 4.8 | 0.00 | 0.00 | 0.00 | 42 | 1013.5 |
| 20260507183951 | 16 | 353 | 6.4 | 12.9 | 0.00 | 0.00 | 0.00 | 43 | 1013.5 |
| 20260507183308 | 16 | 237 | 6.4 | 6.4 | 0.00 | 0.00 | 0.00 | 38 | 1013.2 |
| 20260507182714 | 16 | 39 | 1.6 | 1.6 | 0.00 | 0.00 | 0.00 | 41 | 1013.5 |
| 20260507182150 | 17 | 257 | 14.5 | 17.7 | 0.00 | 0.00 | 0.00 | 36 | 1013.5 |
| 20260507181510 | 17 | 69 | 1.6 | 1.6 | 0.00 | 0.00 | 0.00 | 39 | 1013.5 |
| 20260507180927 | 17 | 127 | 1.6 | 3.2 | 0.00 | 0.00 | 0.00 | 39 | 1013.2 |
| 20260507180324 | 16 | 69 | 3.2 | 4.8 | 0.00 | 0.00 | 0.00 | 42 | 1013.2 |
| 20260507174520 | 16 | 247 | 6.4 | 9.7 | 0.00 | 0.00 | 0.00 | 41 | 1013.5 |
| 20260507173945 | 16 | 344 | 8.0 | 14.5 | 0.00 | 0.00 | 0.00 | 37 | 1013.5 |
| 20260507172732 | 16 | 298 | 6.4 | 9.7 | 0.00 | 0.00 | 0.00 | 39 | 1013.8 |
| 20260507172129 | 16 | 180 | 6.4 | 6.4 | 0.00 | 0.00 | 0.00 | 40 | 1013.8 |
| 20260507170911 | 16 | 293 | 4.8 | 6.4 | 0.00 | 0.00 | 0.00 | 47 | 1013.8 |
| 20260507170321 | 16 | 66 | 1.6 | 1.6 | 0.00 | 0.00 | 0.00 | 40 | 1013.8 |
| 20260507165750 | 16 | 297 | 4.8 | 4.8 | 0.00 | 0.00 | 0.00 | 41 | 1013.8 |
| 20260507165135 | 15 | 171 | 1.6 | 1.6 | 0.00 | 0.00 | 0.00 | 46 | 1013.8 |
| 20260507163923 | 15 | 156 | 3.2 | 4.8 | 0.00 | 0.00 | 0.00 | 44 | 1014.2 |
| 20260507162722 | 15 | 78 | 0.0 | 0.0 | 0.00 | 0.00 | 0.00 | 43 | 1014.5 |
| 20260507162152 | 16 | 243 | 3.2 | 3.2 | 0.00 | 0.00 | 0.00 | 43 | 1014.2 |
| 20260507161555 | 16 | 275 | 3.2 | 4.8 | 0.00 | 0.00 | 0.00 | 38 | 1014.5 |
| 20260507160923 | 16 | 75 | 0.0 | 0.0 | 0.00 | 0.00 | 0.00 | 43 | 1014.5 |
| 20260507160346 | 15 | 80 | 1.6 | 1.6 | 0.00 | 0.00 | 0.00 | 47 | 1014.5 |
| 20260507155731 | 15 | 79 | 0.0 | 0.0 | 0.00 | 0.00 | 0.00 | 48 | 1014.5 |
| 20260507155123 | 15 | 186 | 6.4 | 9.7 | 0.00 | 0.00 | 0.00 | 42 | 1014.5 |
| 20260507154519 | 15 | 28 | 6.4 | 11.3 | 0.00 | 0.00 | 0.00 | 42 | 1014.5 |
| 20260507153911 | 15 | 210 | 9.7 | 14.5 | 0.00 | 0.00 | 0.00 | 44 | 1014.5 |
| 20260507153315 | 15 | 82 | 1.6 | 3.2 | 0.00 | 0.00 | 0.00 | 46 | 1014.5 |
| 20260507152750 | 15 | 338 | 1.6 | 3.2 | 0.00 | 0.00 | 0.00 | 46 | 1014.5 |
| 20260507151534 | 15 | 314 | 3.2 | 4.8 | 0.00 | 0.00 | 0.00 | 46 | 1014.5 |
| 20260507150347 | 15 | 102 | 3.2 | 3.2 | 0.00 | 0.00 | 0.00 | 45 | 1014.5 |
| 20260507145715 | 13 | 236 | 3.2 | 4.8 | 0.00 | 0.00 | 0.00 | 49 | 1014.5 |
| 20260507145111 | 13 | 55 | 3.2 | 6.4 | 0.00 | 0.00 | 0.00 | 51 | 1014.5 |
| 20260507144515 | 15 | 226 | 4.8 | 4.8 | 0.00 | 0.00 | 0.00 | 44 | 1014.9 |
| 20260507143939 | 13 | 46 | 0.0 | 1.6 | 0.00 | 0.00 | 0.00 | 52 | 1014.5 |
| 20260507143320 | 14 | 198 | 8.0 | 11.3 | 0.00 | 0.00 | 0.00 | 49 | 1014.9 |
| 20260507142123 | 13 | 90 | 0.0 | 0.0 | 0.00 | 0.00 | 0.00 | 54 | 1014.9 |
| 20260507141517 | 12 | 37 | 3.2 | 3.2 | 0.00 | 0.00 | 0.00 | 53 | 1014.9 |
| 20260507140926 | 13 | 61 | 0.0 | 0.0 | 0.00 | 0.00 | 0.00 | 56 | 1015.2 |
| 20260507140342 | 13 | 139 | 1.6 | 1.6 | 0.00 | 0.00 | 0.00 | 55 | 1014.9 |
| 20260507135143 | 13 | 93 | 1.6 | 1.6 | 0.00 | 0.00 | 0.00 | 58 | 1015.2 |
| 20260507134519 | 12 | 194 | 3.2 | 4.8 | 0.00 | 0.00 | 0.00 | 53 | 1015.2 |
| 20260507133319 | 13 | 246 | 3.2 | 4.8 | 0.00 | 0.00 | 0.00 | 58 | 1015.5 |
| 20260507132742 | 12 | 87 | 1.6 | 1.6 | 0.00 | 0.00 | 0.00 | 64 | 1015.5 |
| 20260507132122 | 12 | 181 | 3.2 | 3.2 | 0.00 | 0.00 | 0.00 | 66 | 1015.5 |
| 20260507130911 | 12 | 280 | 6.4 | 9.7 | 0.00 | 0.00 | 0.00 | 67 | 1015.5 |
| 20260507130311 | 11 | 81 | 0.0 | 0.0 | 0.00 | 0.00 | 0.00 | 70 | 1015.5 |
| 20260507124550 | 10 | 88 | 0.0 | 0.0 | 0.00 | 0.00 | 0.00 | 78 | 1015.5 |
| 20260507123942 | 9 | 79 | 0.0 | 0.0 | 0.00 | 0.00 | 0.00 | 79 | 1015.5 |
| 20260507123343 | 8 | 101 | 0.0 | 0.0 | 0.00 | 0.00 | 0.00 | 84 | 1015.5 |
| 20260507122748 | 7 | 116 | 0.0 | 0.0 | 0.00 | 0.00 | 0.00 | 91 | 1015.5 |
| 20260507122127 | 7 | 88 | 0.0 | 0.0 | 0.00 | 0.00 | 0.00 | 99 | 1015.5 |
| 20260507120340 | 6 | 87 | 0.0 | 0.0 | 0.00 | 0.00 | 0.00 | 99 | 1015.2 |
| 20260507115712 | 6 | 87 | 0.0 | 0.0 | 0.00 | 0.00 | 0.00 | 99 | 1015.5 |
| 20260507115146 | 5 | 87 | 0.0 | 0.0 | 0.00 | 0.00 | 0.00 | 99 | 1015.2 |
| 20260507114527 | 5 | 87 | 0.0 | 0.0 | 0.00 | 0.00 | 0.00 | 99 | 1015.2 |
| 20260507113916 | 5 | 87 | 0.0 | 0.0 | 0.00 | 0.00 | 0.00 | 99 | 1015.2 |
| 20260507113326 | 4 | 88 | 0.0 | 0.0 | 0.00 | 0.00 | 0.00 | 99 | 1015.2 |
| 20260507112752 | 3 | 88 | 0.0 | 0.0 | 0.00 | 0.00 | 0.00 | 99 | 1015.2 |